TimeEST,TemperatureF,Dew PointF,Humidity,Sea Level PressureIn,VisibilityMPH,Wind Direction,Wind SpeedMPH,Gust SpeedMPH,PrecipitationIn,Events,Conditions,WindDirDegrees,DateUTC
12:12 AM,44.6,37.4,76,30.45,10.0,ENE,6.9,-,N/A,,Mostly Cloudy,60,2013-01-28 05:12:00
12:39 AM,44.6,37.4,76,30.44,10.0,East,5.8,-,N/A,,Scattered Clouds,80,2013-01-28 05:39:00
12:56 AM,44.1,37.0,76,30.44,10.0,ENE,6.9,-,N/A,,Clear,60,2013-01-28 05:56:00
1:56 AM,43.0,36.0,76,30.43,10.0,NE,5.8,-,N/A,,Mostly Cloudy,50,2013-01-28 06:56:00
2:56 AM,43.0,36.0,76,30.42,10.0,NE,5.8,-,N/A,,Mostly Cloudy,40,2013-01-28 07:56:00
3:56 AM,44.1,36.0,73,30.41,10.0,NE,6.9,-,N/A,,Overcast,50,2013-01-28 08:56:00
4:56 AM,45.0,37.0,74,30.40,10.0,ENE,4.6,-,N/A,,Overcast,60,2013-01-28 09:56:00
5:56 AM,46.0,37.9,73,30.40,10.0,NE,5.8,-,N/A,,Overcast,40,2013-01-28 10:56:00
6:56 AM,46.0,39.0,76,30.43,10.0,North,5.8,-,N/A,,Overcast,360,2013-01-28 11:56:00
7:56 AM,46.0,37.9,73,30.43,10.0,NNE,5.8,-,N/A,,Mostly Cloudy,20,2013-01-28 12:56:00
8:56 AM,48.0,39.0,71,30.44,10.0,NNE,5.8,-,N/A,,Mostly Cloudy,20,2013-01-28 13:56:00
9:56 AM,51.1,39.9,66,30.45,10.0,NNE,6.9,-,N/A,,Mostly Cloudy,30,2013-01-28 14:56:00
10:56 AM,53.1,42.1,66,30.44,10.0,Variable,4.6,-,N/A,,Mostly Cloudy,0,2013-01-28 15:56:00
11:56 AM,55.9,43.0,62,30.42,10.0,Calm,Calm,-,N/A,,Mostly Cloudy,0,2013-01-28 16:56:00
12:56 PM,60.1,46.0,60,30.37,10.0,ESE,5.8,-,N/A,,Mostly Cloudy,120,2013-01-28 17:56:00
1:56 PM,62.1,48.0,60,30.35,10.0,Calm,Calm,-,N/A,,Mostly Cloudy,0,2013-01-28 18:56:00
2:56 PM,64.0,51.1,63,30.32,10.0,Calm,Calm,-,N/A,,Mostly Cloudy,0,2013-01-28 19:56:00
3:56 PM,66.0,52.0,60,30.32,10.0,South,4.6,-,N/A,,Mostly Cloudy,170,2013-01-28 20:56:00
4:56 PM,64.9,53.1,65,30.32,10.0,SSE,4.6,-,N/A,,Partly Cloudy,150,2013-01-28 21:56:00
5:56 PM,55.9,50.0,80,30.33,10.0,Calm,Calm,-,N/A,,Mostly Cloudy,0,2013-01-28 22:56:00
6:56 PM,55.9,52.0,87,30.32,10.0,Calm,Calm,-,N/A,,Clear,0,2013-01-28 23:56:00
7:56 PM,55.0,51.1,86,30.32,10.0,Calm,Calm,-,N/A,,Clear,0,2013-01-29 00:56:00
8:56 PM,53.1,50.0,89,30.31,7.0,Calm,Calm,-,N/A,,Partly Cloudy,0,2013-01-29 01:56:00
9:36 PM,50.0,48.2,94,30.31,1.5,Calm,Calm,-,N/A,,Partly Cloudy,0,2013-01-29 02:36:00
9:42 PM,50.0,48.2,94,30.31,0.8,Calm,Calm,-,N/A,,Partly Cloudy,0,2013-01-29 02:42:00
9:56 PM,51.1,50.0,96,30.31,0.8,Calm,Calm,-,N/A,,Scattered Clouds,0,2013-01-29 02:56:00
10:14 PM,51.8,48.2,88,30.31,1.2,Calm,Calm,-,N/A,,Scattered Clouds,0,2013-01-29 03:14:00
10:16 PM,51.8,48.2,88,30.31,2.5,Calm,Calm,-,N/A,,Scattered Clouds,0,2013-01-29 03:16:00
10:23 PM,51.8,50.0,94,30.30,6.0,Calm,Calm,-,N/A,,Partly Cloudy,0,2013-01-29 03:23:00
10:56 PM,51.1,48.0,89,30.30,6.0,Calm,Calm,-,N/A,,Clear,0,2013-01-29 03:56:00
11:35 PM,50.0,48.2,94,30.29,1.5,Calm,Calm,-,N/A,,Clear,0,2013-01-29 04:35:00
11:38 PM,50.0,48.2,94,30.29,0.8,Calm,Calm,-,N/A,,Mist,0,2013-01-29 04:38:00
11:41 PM,50.0,48.2,94,30.29,0.5,Calm,Calm,-,N/A,Fog,Fog,0,2013-01-29 04:41:00
11:49 PM,50.0,48.2,94,30.30,0.2,Calm,Calm,-,N/A,Fog,Fog,0,2013-01-29 04:49:00
11:56 PM,50.0,48.0,93,30.30,0.8,Calm,Calm,-,N/A,,Mist,0,2013-01-29 04:56:00
11:58 PM,50.0,48.2,94,30.29,1.2,Calm,Calm,-,N/A,,Scattered Clouds,0,2013-01-29 04:58:00